| time (UTC) | temp C | wind direction | speed KPH | gust KPH | rain 1hr cm | rain 24hr cm | rain mn cm | humidity % | barometer mb |
| 20260507063003 | 7 | 265 | 0.0 | 0.0 | 0.00 | 0.00 | 0.00 | 60 | 1010.8 |
| 20260507061503 | 7 | 265 | 0.0 | 0.0 | 0.00 | 0.00 | 0.00 | 58 | 1011.0 |
| 20260507060001 | 7 | 265 | 0.0 | 0.0 | 0.00 | 0.00 | 0.00 | 57 | 1010.9 |
| 20260507054607 | 7 | 265 | 0.0 | 0.0 | 0.00 | 0.00 | 0.00 | 57 | 1011.0 |
| 20260507053101 | 8 | 265 | 0.0 | 0.0 | 0.00 | 0.00 | 0.00 | 57 | 1011.2 |
| 20260507051556 | 8 | 265 | 0.0 | 0.0 | 0.00 | 0.00 | 0.00 | 57 | 1011.1 |
| 20260507050057 | 8 | 265 | 0.0 | 0.0 | 0.00 | 0.00 | 0.00 | 57 | 1011.1 |
| 20260507044600 | 8 | 277 | 0.0 | 0.0 | 0.00 | 0.00 | 0.00 | 55 | 1011.1 |
| 20260507043057 | 8 | 246 | 0.0 | 0.0 | 0.00 | 0.00 | 0.00 | 56 | 1011.1 |
| 20260507041552 | 8 | 246 | 0.0 | 0.0 | 0.00 | 0.00 | 0.00 | 55 | 1011.0 |
| 20260507040050 | 8 | 246 | 0.0 | 0.0 | 0.00 | 0.00 | 0.00 | 57 | 1011.1 |
| 20260507034555 | 8 | 246 | 0.0 | 0.0 | 0.00 | 0.00 | 0.00 | 56 | 1011.1 |
| 20260507033049 | 8 | 246 | 0.0 | 0.0 | 0.00 | 0.00 | 0.00 | 54 | 1011.2 |
| 20260507031548 | 8 | 246 | 0.0 | 0.0 | 0.00 | 0.00 | 0.00 | 54 | 1011.2 |
| 20260507030054 | 8 | 246 | 0.0 | 0.0 | 0.00 | 0.00 | 0.00 | 53 | 1011.3 |
| 20260507024554 | 9 | 246 | 0.0 | 0.0 | 0.00 | 0.00 | 0.00 | 54 | 1011.2 |
| 20260507023047 | 9 | 249 | 0.0 | 0.0 | 0.00 | 0.00 | 0.00 | 53 | 1011.1 |
| 20260507021545 | 8 | 249 | 0.0 | 0.0 | 0.00 | 0.00 | 0.00 | 53 | 1011.1 |
| 20260507020050 | 8 | 249 | 0.0 | 0.0 | 0.00 | 0.00 | 0.00 | 54 | 1011.1 |
| 20260507014545 | 9 | 249 | 0.0 | 0.0 | 0.00 | 0.00 | 0.00 | 54 | 1011.0 |
| 20260507013056 | 9 | 249 | 0.0 | 0.0 | 0.00 | 0.00 | 0.00 | 52 | 1010.9 |
| 20260507011544 | 9 | 250 | 0.0 | 0.0 | 0.00 | 0.00 | 0.00 | 51 | 1010.8 |
| 20260507010045 | 10 | 250 | 0.0 | 0.0 | 0.00 | 0.00 | 0.00 | 50 | 1010.7 |
| 20260507004544 | 10 | 250 | 0.0 | 0.0 | 0.00 | 0.00 | 0.00 | 49 | 1010.6 |
| 20260507003044 | 10 | 249 | 0.0 | 6.4 | 0.00 | 0.00 | 0.00 | 48 | 1010.8 |
| 20260507001544 | 10 | 270 | 0.0 | 9.7 | 0.00 | 0.00 | 0.00 | 46 | 1010.5 |
| 20260507000048 | 10 | 294 | 1.6 | 6.4 | 0.00 | 0.00 | 0.00 | 46 | 1010.5 |
| 20260506234542 | 10 | 269 | 0.0 | 8.0 | 0.00 | 0.00 | 0.00 | 47 | 1010.4 |
| 20260506233041 | 10 | 269 | 3.2 | 9.7 | 0.00 | 0.00 | 0.00 | 45 | 1010.4 |
| 20260506231543 | 11 | 269 | 3.2 | 11.3 | 0.00 | 0.00 | 0.00 | 45 | 1010.4 |
| 20260506230039 | 11 | 302 | 3.2 | 14.5 | 0.00 | 0.00 | 0.00 | 47 | 1010.3 |
| 20260506224551 | 11 | 266 | 0.0 | 6.4 | 0.00 | 0.00 | 0.00 | 47 | 1010.3 |
| 20260506223038 | 11 | 138 | 6.4 | 12.9 | 0.00 | 0.00 | 0.00 | 44 | 1010.3 |
| 20260506221538 | 11 | 267 | 1.6 | 9.7 | 0.00 | 0.00 | 0.00 | 47 | 1010.3 |
| 20260506220038 | 11 | 327 | 4.8 | 12.9 | 0.00 | 0.00 | 0.00 | 43 | 1010.3 |
| 20260506214539 | 11 | 271 | 4.8 | 12.9 | 0.00 | 0.00 | 0.00 | 44 | 1010.3 |
| 20260506213041 | 11 | 281 | 3.2 | 9.7 | 0.00 | 0.00 | 0.00 | 45 | 1010.2 |
| 20260506211536 | 11 | 300 | 0.0 | 11.3 | 0.00 | 0.00 | 0.00 | 46 | 1010.2 |
| 20260506210039 | 11 | 265 | 0.0 | 8.0 | 0.00 | 0.00 | 0.00 | 47 | 1010.1 |
| 20260506204534 | 11 | 299 | 3.2 | 12.9 | 0.00 | 0.00 | 0.00 | 46 | 1010.2 |
| 20260506203034 | 11 | 307 | 0.0 | 8.0 | 0.00 | 0.00 | 0.00 | 47 | 1010.3 |
| 20260506201532 | 11 | 270 | 6.4 | 14.5 | 0.00 | 0.00 | 0.00 | 45 | 1010.3 |
| 20260506200034 | 11 | 255 | 1.6 | 4.8 | 0.00 | 0.00 | 0.00 | 47 | 1010.4 |
| 20260506194532 | 10 | 360 | 0.0 | 6.4 | 0.00 | 0.00 | 0.00 | 51 | 1010.3 |
| 20260506193030 | 10 | 283 | 0.0 | 3.2 | 0.00 | 0.00 | 0.00 | 50 | 1010.6 |
| 20260506191534 | 10 | 297 | 3.2 | 11.3 | 0.00 | 0.00 | 0.00 | 48 | 1010.6 |
| 20260506190028 | 11 | 311 | 0.0 | 0.0 | 0.00 | 0.00 | 0.00 | 51 | 1010.6 |
| 20260506184531 | 11 | 297 | 0.0 | 8.0 | 0.00 | 0.00 | 0.00 | 51 | 1010.8 |
| 20260506183027 | 11 | 255 | 1.6 | 9.7 | 0.00 | 0.00 | 0.00 | 49 | 1010.6 |
| 20260506181525 | 11 | 271 | 0.0 | 8.0 | 0.00 | 0.00 | 0.00 | 52 | 1010.5 |
| 20260506180025 | 10 | 32 | 1.6 | 8.0 | 0.00 | 0.00 | 0.00 | 50 | 1010.7 |
| 20260506174521 | 10 | 74 | 1.6 | 9.7 | 0.00 | 0.00 | 0.00 | 51 | 1010.8 |
| 20260506173020 | 10 | 317 | 1.6 | 8.0 | 0.00 | 0.00 | 0.00 | 49 | 1011.0 |
| 20260506171523 | 10 | 17 | 0.0 | 11.3 | 0.00 | 0.00 | 0.00 | 49 | 1011.1 |
| 20260506170019 | 10 | 277 | 3.2 | 11.3 | 0.00 | 0.00 | 0.00 | 49 | 1011.2 |
| 20260506164520 | 10 | 332 | 0.0 | 9.7 | 0.00 | 0.00 | 0.00 | 49 | 1011.0 |
| 20260506163017 | 10 | 320 | 4.8 | 14.5 | 0.00 | 0.00 | 0.00 | 50 | 1011.1 |
| 20260506161515 | 10 | 276 | 0.0 | 9.7 | 0.00 | 0.00 | 0.00 | 53 | 1011.1 |
| 20260506160014 | 9 | 360 | 3.2 | 9.7 | 0.00 | 0.00 | 0.00 | 52 | 1011.3 |
| 20260506154510 | 9 | 267 | 0.0 | 9.7 | 0.00 | 0.00 | 0.00 | 59 | 1011.3 |
| 20260506153006 | 9 | 57 | 1.6 | 11.3 | 0.00 | 0.00 | 0.00 | 60 | 1011.1 |
| 20260506151505 | 8 | 278 | 4.8 | 16.1 | 0.00 | 0.00 | 0.00 | 60 | 1011.0 |
| 20260506150002 | 8 | 327 | 1.6 | 9.7 | 0.00 | 0.05 | 0.00 | 64 | 1010.9 |
| 20260506144501 | 7 | 317 | 0.0 | 11.3 | 0.00 | 0.05 | 0.00 | 67 | 1010.9 |
| 20260506143101 | 7 | 350 | 3.2 | 9.7 | 0.00 | 0.05 | 0.00 | 67 | 1010.7 |
| 20260506141604 | 7 | 308 | 0.0 | 8.0 | 0.00 | 0.05 | 0.00 | 67 | 1010.6 |
| 20260506140114 | 7 | 292 | 1.6 | 8.0 | 0.00 | 0.05 | 0.00 | 68 | 1010.4 |
| 20260506134558 | 7 | 333 | 0.0 | 8.0 | 0.00 | 0.05 | 0.00 | 68 | 1010.2 |
| 20260506133102 | 7 | 329 | 3.2 | 9.7 | 0.00 | 0.05 | 0.00 | 70 | 1010.2 |
| 20260506131551 | 6 | 11 | 1.6 | 6.4 | 0.00 | 0.05 | 0.00 | 69 | 1010.0 |
| 20260506130050 | 6 | 355 | 1.6 | 8.0 | 0.00 | 0.05 | 0.00 | 69 | 1009.9 |
| 20260506124549 | 6 | 5 | 0.0 | 6.4 | 0.00 | 0.05 | 0.00 | 68 | 1009.8 |
| 20260506123047 | 6 | 321 | 1.6 | 8.0 | 0.00 | 0.05 | 0.00 | 68 | 1009.5 |
| 20260506121546 | 6 | 307 | 0.0 | 3.2 | 0.00 | 0.05 | 0.00 | 68 | 1009.4 |
| 20260506120046 | 5 | 321 | 0.0 | 8.0 | 0.00 | 0.05 | 0.00 | 67 | 1009.1 |
| 20260506114539 | 5 | 260 | 0.0 | 0.0 | 0.00 | 0.05 | 0.00 | 70 | 1008.9 |
| 20260506113046 | 5 | 260 | 0.0 | 0.0 | 0.00 | 0.05 | 0.00 | 71 | 1008.5 |
| 20260506111536 | 4 | 261 | 0.0 | 0.0 | 0.00 | 0.05 | 0.00 | 75 | 1008.4 |
| 20260506110037 | 4 | 290 | 0.0 | 0.0 | 0.00 | 0.05 | 0.00 | 75 | 1008.3 |
| 20260506104535 | 4 | 290 | 0.0 | 0.0 | 0.00 | 0.05 | 0.00 | 77 | 1008.2 |
| 20260506103033 | 4 | 290 | 0.0 | 0.0 | 0.00 | 0.05 | 0.00 | 73 | 1008.1 |
| 20260506101537 | 5 | 290 | 0.0 | 0.0 | 0.00 | 0.05 | 0.00 | 72 | 1008.1 |
| 20260506100029 | 5 | 290 | 0.0 | 0.0 | 0.00 | 0.05 | 0.00 | 69 | 1007.8 |
| 20260506094520 | 6 | 290 | 0.0 | 0.0 | 0.00 | 0.05 | 0.00 | 67 | 1007.5 |
| 20260506093019 | 6 | 290 | 0.0 | 0.0 | 0.00 | 0.05 | 0.00 | 66 | 1007.3 |
| 20260506091518 | 6 | 290 | 0.0 | 0.0 | 0.00 | 0.05 | 0.00 | 66 | 1007.0 |
| 20260506090015 | 6 | 290 | 0.0 | 0.0 | 0.00 | 0.05 | 0.00 | 66 | 1007.1 |
| 20260506084514 | 6 | 297 | 0.0 | 0.0 | 0.00 | 0.05 | 0.00 | 66 | 1007.1 |
| 20260506083012 | 6 | 297 | 0.0 | 0.0 | 0.00 | 0.05 | 0.00 | 63 | 1007.2 |
| 20260506081510 | 6 | 297 | 0.0 | 0.0 | 0.00 | 0.05 | 0.00 | 65 | 1007.2 |
| 20260506073006 | 7 | 308 | 0.0 | 0.0 | 0.00 | 0.05 | 0.00 | 61 | 1007.3 |
| 20260506071503 | 7 | 308 | 0.0 | 0.0 | 0.00 | 0.05 | 0.00 | 62 | 1007.2 |